Regional Weather Roundup
Issued by NWS

Home | Current Version | Previous Version | Text Only | Print | Product List | Glossary On
Versions: 1 2 3 4 5 6 7 8 9 10 11 12 13 14 15 16 17 18 19 20 21 22 23 24 25 26 27 28 29 30 31 32 33 34 35 36 37 38 39 40 41 42 43 44 45 46 47 48 49 50
000
ASUS43 KOAX 200910
RWRNE

WEATHER ROUNDUP FOR NEBRASKA
NATIONAL WEATHER SERVICE OMAHA NE
400 AM CDT WED AUG 20 2014

NOTES: SATELLITE DATA IS BEING USED TO AUGMENT CLOUD COVER ABOVE
       12000 FEET.
       "FAIR" INDICATES FEW OR NO CLOUDS BELOW 12,000 FEET WITH NO
       SIGNIFICANT WEATHER AND/OR OBSTRUCTIONS TO VISIBILITY.

  * THESE STATIONS DO NOT REPORT WEATHER SUCH AS RAIN...SNOW OR FOG.

NEZ001>004-019>022-054>056-201000-
NEBRASKA PANHANDLE

CITY           SKY/WX    TMP DP  RH WIND       PRES   REMARKS
SCOTTSBLUFF    CLOUDY    66  59  78 N5        29.81S
ALLIANCE       CLOUDY    63  57  81 S8        29.82R
CHADRON        CLOUDY    71  53  52 CALM      29.74F
KIMBALL        CLOUDY    62  55  78 W6        29.88R
SIDNEY         CLOUDY    62  59  90 SW7       29.85S
$$

NEZ057>060-069>072-079>082-201000-
SOUTHWEST NEBRASKA

CITY           SKY/WX    TMP DP  RH WIND       PRES   REMARKS
NORTH PLATTE   MOCLDY    66  64  93 NW3       29.76F
IMPERIAL       CLOUDY    67  62  84 E7        29.79F
LEXINGTON      CLOUDY    70  68  92 S7        29.78S
MCCOOK         CLOUDY    74  62  66 SE6       29.79S
OGALLALA       CLOUDY    65  62  91 NE3       29.79F
$$

NEZ005>010-023>029-035>040-094-201000-
NORTH CENTRAL NEBRASKA

CITY           SKY/WX    TMP DP  RH WIND       PRES   REMARKS
VALENTINE      MOCLDY    68  66  93 E6        29.73F
AINSWORTH      CLOUDY    69  68  96 SE3       29.76S
BROKEN BOW     CLOUDY    70  68  93 E3        29.75F
O`NEILL        CLOUDY    72  69  90 E9        29.77S
ORD            CLOUDY    72  68  87 S6        29.74F
THEDFORD       CLOUDY    73  59  61 S7        29.75S
$$

NEZ041-046>049-061>064-073>077-083>087-201000-
SOUTH CENTRAL NEBRASKA

CITY           SKY/WX    TMP DP  RH WIND       PRES   REMARKS
GRAND ISLAND   CLOUDY    75  66  73 S7        29.77S
AURORA         CLOUDY    75  69  81 S9        29.77S
HASTINGS       CLOUDY    73  64  73 S6        29.78S
HEBRON         CLOUDY    74  65  73 S6        29.79R
HOLDREGE       CLOUDY    73  65  78 CALM      29.79F
KEARNEY *      CLOUDY    72  66  83 S3        29.79S
YORK           CLOUDY    73 N/A N/A S9        29.77S
$$

NEZ011>018-030>034-042>045-201000-
NORTHEAST NEBRASKA

CITY           SKY/WX    TMP DP  RH WIND       PRES   REMARKS
NORFOLK        CLOUDY    73  67  81 SE9       29.74F
ALBION         CLOUDY    72  67  83 SE3       29.76S
BLAIR          MOCLDY    74  67  80 SE7       29.76F
COLUMBUS *     CLOUDY    72  70  94 S5        29.76F
FREMONT        CLOUDY    75  68  78 SE7       29.75F
TEKAMAH        CLOUDY    69  66  90 CALM      29.75F
WAYNE          CLOUDY    72  67  84 SE12      29.74F
$$

NEZ050>053-065>068-078-088>093-201000-
SOUTHEAST NEBRASKA

CITY           SKY/WX    TMP DP  RH WIND       PRES   REMARKS
LINCOLN        CLOUDY    74  69  85 S7        29.77S
OMAHA EPPLEY   CLOUDY    75  67  76 SE7       29.76F
BEATRICE       CLOUDY    75  69  80 S8        29.78S
FALLS CITY     CLOUDY    75  70  84 S9        29.77F
NEBRASKA CITY  CLOUDY    72  72 100 S6        29.77F
PLATTSMOUTH    CLOUDY    74  69  83 SE8       29.77F
$$

NEZ044-045-051>053-067-201000-
OMAHA AREA

CITY           SKY/WX    TMP DP  RH WIND       PRES   REMARKS
OMAHA EPPLEY   CLOUDY    75  67  76 SE7       29.76F
BLAIR          MOCLDY    74  67  80 SE7       29.76F
FREMONT        CLOUDY    75  68  78 SE7       29.75F
MILLARD        CLOUDY    74  69  85 S3        29.75F
OFFUTT AFB     CLOUDY    73  73  99 SE6       29.75F
PLATTSMOUTH    CLOUDY    74  69  83 SE8       29.77F
WAHOO          FAIR      71  68  89 SE5       29.75F
$$



USA.gov is the U.S. government's official web portal to all federal, state and local government web resources and services.